COSMO-SKYMED 1 (31598 NORAD) Tracking and Keplerian Element Data

This shows tracking and keplerian element data for the satellite.

Feedback or suggestion? Click here.




ElementValue
Catalog31598
NameCOSMO-SKYMED 1
Epoch Orbit60104
Epoch Day198.78566413
Epoch Year2018
RAAN21.9287
Inclination97.8889
Eccentricity0.0001632
Argument of Perigee87.0846
Mean Anonmoly273.0564
Mean Motion14.82151751
Decay Rate-2.86E-06
L11 31598U 07023A 18198.78566413 -.00000286 00000-0 -29365-4 0 9992
L22 31598 97.8889 21.9287 0001632 87.0846 273.0564 14.82151751601044

Live tracking and technical data element details for COSMO-SKYMED 1 (NORAD 31598). COSMO-SKYMED 1 can be tracked NOW for your location showing map with azimuth and elevation plus other details from your city location.

Track the satellite on the map from your city or location and see movement details for azimuth, elevation, latitude, longitude, range, height, and movement on the map or in text.







IsCatalogInMostPopularTable: catalog: 31598, numindb: 30
Update: records affected: 1



GetName: 31598 COSMO-SKYMED 1

Hit Count: updated at: Thu, 19 Jul 2018 21:24:24 GMT